Tracking 35237 objects as of 6-Sep-2026
HD Live streaming from Space Station
objects crossing your sky now

STARLINK-30113

Track STARLINK-30113 now!
10-day predictions
STARLINK-30113 is classified as:


NORAD ID: 56291
Int'l Code: 2023-056F
Launch date: April 19, 2023
Source: United States (US)
Launch site: AIR FORCE EASTERN TEST RANGE (AFETR)
Your satellite tracking list
Your tracking list is empty




NASA's NSSDC Master Catalog

Two Line Element Set (TLE):
1 56291U 23056F   26249.50141307  .00000082  00000-0  12496-4 0  9999
2 56291  43.0038 267.7158 0001452 267.0038  93.0647 15.27578114187698
Source of the keplerian elements: AFSPC